Flag for Senegal Weather past 2 weeks in Dakar, Senegal

Now
82 °F

Passing clouds.


Feels Like: 91 °F
Forecast: 82 / 89 °F
Wind: 6 mph from Northwest

Location: Dakar / Yoff

Current Time: Aug 22, 2014 at 2:00:53 AM

Latest Report: Aug 22, 2014 at 1:00 AM


Visibility: N/A

Pressure: 29.92 "Hg

Humidity: 84%

Dew point: 77 °F

Location of DakarLocation

Historic Weather in Dakar — Graph

°F

Dakar temperature yesterday

Maximum temperature yesterday: 88 °F (at 2:00 PM)
Minimum temperature yesterday: 81 °F (at 1:00 AM)
Average temperature yesterday: 83 °F

Past Weeks' High & Low Weather Summary

 TemperatureHumidityPressure
High91 °F (Aug 10, 2:30 PM)94% (Aug 11, 9:30 AM)29.98 "Hg (Aug 11, 9:30 AM)
Low77 °F (Aug 11, 9:30 AM)59% (Aug 9, 12:00 PM)29.77 "Hg (Aug 9, 4:30 PM)
Average82 °F78%29.88 "Hg
* Reported Aug 7 1:00 AM — Aug 22 1:00 AM, Dakar, Weather by CustomWeather, © 2014

Note: Actual official high and low records may vary slightly from our data, if they occured in-between our weather recording intervals... More about our weather records

Advertising

Dakar weather history for previous 24 hours

 ConditionsComfort  
Time TempWeatherWind HumidityBarometerVisibility
1:00 AM
Aug 22
82 °FPassing clouds.6 mph84%29.92 "HgN/A
12:30 AM82 °FPassing clouds.5 mph84%29.92 "HgN/A
12:00 AM82 °FPassing clouds.5 mph84%29.92 "HgN/A
11:30 PM
Aug 21
82 °FPassing clouds.3 mph79%29.92 "HgN/A
11:00 PM82 °FPassing clouds.5 mph84%29.92 "HgN/A
10:30 PM82 °FPassing clouds.6 mph84%29.92 "HgN/A
10:00 PM82 °FPassing clouds.6 mph84%29.92 "HgN/A
9:30 PM82 °FPassing clouds.5 mph79%29.89 "HgN/A
9:00 PM82 °FPassing clouds.6 mph79%29.89 "HgN/A
8:30 PM82 °FPassing clouds.6 mph79%29.86 "HgN/A
8:00 PM82 °FPassing clouds.7 mph79%29.86 "HgN/A
7:30 PM82 °FPassing clouds.7 mph79%29.86 "HgN/A
7:00 PM84 °FBroken clouds.9 mph74%29.86 "HgN/A
6:30 PM84 °FBroken clouds.9 mph79%29.86 "HgN/A
6:00 PM84 °FScattered clouds.8 mph79%29.86 "HgN/A
5:30 PM86 °FScattered clouds.10 mph75%29.86 "HgN/A
5:00 PM86 °FScattered clouds.10 mph75%29.86 "HgN/A
4:30 PM86 °FScattered clouds.13 mph70%29.86 "HgN/A
4:00 PM86 °FScattered clouds.10 mph70%29.86 "HgN/A
3:30 PM86 °FScattered clouds.10 mph75%29.86 "HgN/A
3:00 PM88 °FScattered clouds.10 mph70%29.86 "HgN/A
2:30 PM86 °FScattered clouds.9 mph75%29.89 "HgN/A
2:00 PM88 °FScattered clouds.9 mph70%29.92 "HgN/A
1:30 PM86 °FScattered clouds.9 mph75%29.92 "HgN/A
1:00 PM86 °FScattered clouds.10 mph70%29.92 "HgN/A
12:30 PM86 °FScattered clouds.10 mph75%29.95 "HgN/A
12:00 PM86 °FScattered clouds.9 mph75%29.95 "HgN/A
11:30 AM86 °FScattered clouds.10 mph75%29.95 "HgN/A
11:00 AM86 °FScattered clouds.10 mph70%29.95 "HgN/A
10:30 AM84 °FScattered clouds.9 mph74%29.95 "HgN/A
10:00 AM84 °FScattered clouds.8 mph74%29.95 "HgN/A
9:30 AM84 °FScattered clouds.7 mph74%29.95 "HgN/A
9:00 AM84 °FScattered clouds.7 mph74%29.92 "HgN/A
8:30 AM82 °FScattered clouds.7 mph79%29.92 "HgN/A
8:00 AM81 °FScattered clouds.6 mph84%29.92 "HgN/A
7:30 AM81 °FPartly sunny.5 mph84%29.92 "HgN/A
7:00 AM81 °FBroken clouds.6 mph84%29.89 "HgN/A
6:30 AM81 °FPassing clouds.7 mph84%29.89 "HgN/A
6:00 AM81 °FPassing clouds.6 mph84%29.89 "HgN/A
5:30 AM81 °FPassing clouds.7 mph84%29.86 "HgN/A
5:00 AM81 °FPassing clouds.6 mph84%29.89 "HgN/A
4:30 AM81 °FPassing clouds.6 mph84%29.89 "HgN/A
4:00 AM81 °FPassing clouds.6 mph84%29.89 "HgN/A
3:30 AM81 °FPassing clouds.6 mph84%29.92 "HgN/A
3:00 AM81 °FPassing clouds.6 mph84%29.92 "HgN/A
2:30 AM81 °FPassing clouds.5 mph84%29.92 "HgN/A
2:00 AM81 °FPassing clouds.3 mph84%29.95 "HgN/A
Weather by CustomWeather, © 2014

See weather overviewHow to use our weather pages